User: anonymous   Login
Location: Pasadena, ca
(34.1243°N, 118.1037°W)
Time: 10:25:00
(UTC-08:00)
Language:

OTV 5 (USA 277) - Orbit

View from above orbital plane
View from above orbital plane
View from above satellite
View from above satellite

Ground track
Ground track

The orbit data is extracted from the following two-line orbital elements,

1 42932U 17052A   18318.68795332 0.00004968  00000-0  32323-4 0    06
2 42932  54.4908 173.4025 0006845 100.1016 259.8983 15.75256788    04
Epoch (UTC): 14 November 2018 16:30:39
Eccentricity: 0.0006845
inclination: 54.4908°
perigee height: 339 km
apogee height: 348 km
right ascension of ascending node: 173.4025°
argument of perigee: 100.1016°
revolutions per day: 15.75256788
mean anomaly at epoch: 259.8983°
orbit number at epoch: 0

The dashed part of the orbit path shows where the satellite is in the earth's shadow,  

DLR